Location: Mentone
(34.5413°N, 85.5351°W)
Time: 19:41:34
(UTC-05:00)

Vanguard 2 Rocket - Visible Passes

Search period start: 25 July 2016 00:00
Search period end: 04 August 2016 00:00
Orbit: 555 x 3328 km, 32.9° (Epoch: 24 July)

Date Brightness Start Highest point End Pass type
(mag) Time Alt. Az. Time Alt. Az. Time Alt. Az.
25 Jul 8.8 02:18:15 48° S 02:19:34 50° SSE 02:28:55 10° E visible
25 Jul 7.9 04:24:02 15° WSW 04:34:43 76° S 04:41:39 10° E visible
26 Jul 9.2 01:21:43 39° SE 01:21:43 39° SE 01:29:39 10° E visible
26 Jul 8.2 03:27:29 32° WSW 03:34:50 70° SSE 03:43:03 10° E visible
27 Jul 9.8 00:25:05 24° ESE 00:25:05 24° ESE 00:29:51 10° E visible
27 Jul 8.6 02:30:51 50° SSW 02:34:36 63° SSE 02:44:13 10° E visible
27 Jul 7.9 04:36:57 10° W 04:49:50 82° S 04:56:48 10° E visible
27 Jul 10.3 23:28:22 12° E 23:28:22 12° E 23:29:15 10° E visible
28 Jul 8.9 01:34:07 55° SSE 01:34:07 55° SSE 01:45:07 10° E visible
28 Jul 8.2 03:39:52 23° WSW 03:49:56 79° S 03:58:12 10° E visible
28 Jul 10.7 22:03:41 10° S 22:31:33 - E 22:04:36 11° S visible
29 Jul 9.4 00:37:17 40° ESE 00:37:17 40° ESE 00:45:35 10° E visible
29 Jul 8.5 02:43:01 41° WSW 02:49:39 74° SSE 02:59:24 10° E visible
29 Jul 7.9 04:52:04 10° W 05:04:59 81° S 05:11:56 10° E visible
29 Jul 10.5 21:07:38 10° SSE 21:10:20 12° SSE 21:10:20 12° SSE visible
29 Jul 9.9 23:14:30 10° SSW 23:40:18 25° ESE 23:45:31 10° E visible
30 Jul 8.8 01:46:01 59° SSW 01:48:59 67° SSE 02:00:21 10° E visible
30 Jul 8.2 03:51:44 14° W 04:05:04 83° S 04:13:21 10° E visible
30 Jul 10.3 22:14:52 10° SSW 22:43:05 13° E 22:44:37 10° E visible
31 Jul 9.1 00:48:47 59° SSE 00:48:47 59° SSE 01:00:57 10° E visible
31 Jul 8.5 02:54:28 28° WSW 03:04:44 81° S 03:14:33 10° E visible
31 Jul 7.9 05:07:12 10° W 05:20:03 73° SSW 05:27:00 10° ESE visible
31 Jul 10.1 21:16:28 10° S 21:45:31 - E 21:29:12 22° SE visible
31 Jul 9.5 23:27:42 10° SW 23:51:10 44° ESE 00:01:08 10° E visible
01 Aug 8.8 01:56:49 44° WSW 02:03:59 77° SSE 02:15:31 10° E visible
01 Aug 8.2 04:04:57 10° W 04:20:11 81° S 04:28:28 10° ESE visible
01 Aug 10.4 20:20:18 10° SSE 20:29:00 14° SE 20:36:57 11° ESE visible
01 Aug 9.7 22:27:25 10° SSW 22:52:38 32° ESE 23:00:42 10° E visible
02 Aug 9.0 00:42:59 10° WSW 01:02:53 70° SSE 01:16:11 10° E visible
02 Aug 8.5 03:03:33 12° W 03:19:52 84° S 03:29:42 10° E visible
02 Aug 8.0 05:22:20 10° W 05:34:57 61° SSW 05:41:54 10° SE visible
02 Aug 9.9 21:28:04 10° SSW 21:44:14 32° SE 21:59:26 10° E visible
02 Aug 9.2 23:41:33 10° SW 00:01:29 62° SSE 00:16:26 10° E visible
03 Aug 8.8 01:59:55 10° WSW 02:19:04 83° S 02:30:39 10° E visible
03 Aug 8.3 04:20:05 10° W 04:35:14 74° SSW 04:43:30 10° ESE visible
03 Aug 10.1 20:29:54 10° S 20:43:17 24° SE 20:56:52 10° E visible
03 Aug 9.4 22:40:49 10° SW 23:00:00 53° SSE 23:16:14 10° E visible
